This demonstration page uses our WeatherBlox Daily Observations layout. Learn more.

Left ArrowRight Arrow

41.86663, -103.66717

Hourly Observations for March 29, 2018

Temp ( °F °C ) Dew Point ( °F °C ) Humidity (%) Winds ( mph kmh ) Pressure ( in mb ) Visibility ( mi km ) Precip ( " mm )
12:53 am 00:53 Cloudy 33 0.6 30 -1.1 89 89 N N/A 30.02 1017 10 16 N/A
1:37 am 01:37 Cloudy with Light Rain 34 1.1 32 undefined 92 92 N N/A 30.09 1019 9 14 0.01 0.25
1:53 am 01:53 Cloudy 35 1.7 33 0.6 93 93 ENE 6 9 30.01 1016 10 16 0.01 0.25
2:00 am 02:00 Cloudy 36 2 34 1 93 93 E 5 7 30.09 1019 10 16 N/A
2:45 am 02:45 Cloudy with Light Rain 36 2.2 34 1.1 93 93 WSW 8 13 30.06 1018 7 11 N/A
2:53 am 02:53 Cloudy with Light Rain 37 2.8 34 1.1 89 89 W 10 17 30.00 1016 9 14 0.01 0.25
3:20 am 03:20 Cloudy with Light Snow 34 1.1 33 0.6 97 97 N 8 13 30.09 1019 3 4 0.03 0.76
3:26 am 03:26 Cloudy with Light Snow 34 1.1 33 0.6 97 97 N 7 11 30.09 1019 3 5 0.03 0.76
3:53 am 03:53 Cloudy 34 1.1 33 0.6 97 97 SSW 5 7 29.99 1016 10 16 0.04 1.02
4:01 am 04:01 Cloudy 34 1.1 33 0.6 97 97 SSW 5 7 30.09 1019 10 16 N/A
4:13 am 04:13 Cloudy 34 1.1 34 1.1 100 100 SW 6 9 30.09 1019 10 16 N/A
4:35 am 04:35 Cloudy with Light Wintry Mix 34 1.1 34 1.1 100 100 WSW 3 6 30.06 1018 9 14 N/A
4:45 am 04:45 Cloudy with Light Snow 35 1.7 34 1.1 96 96 N N/A 30.06 1018 10 16 N/A
4:53 am 04:53 Cloudy 35 1.7 34 1.1 96 96 N N/A 29.98 1015 10 16 N/A
5:32 am 05:32 Mostly Cloudy 34 1.1 33 0.6 97 97 WNW 7 11 30.06 1018 10 16 N/A
5:44 am 05:44 Cloudy 34 1 34 1 100 100 NW 8 13 30.06 1018 10 16 N/A
5:53 am 05:53 Cloudy 35 1.7 34 1.1 96 96 WNW 9 15 29.99 1016 10 16 N/A
6:31 am 06:31 Cloudy 34 1.1 34 1.1 100 100 NW 5 7 30.09 1019 10 16 N/A
6:53 am 06:53 Mostly Cloudy 34 1.1 33 0.6 97 97 WNW 7 11 30.01 1016 10 16 N/A
7:01 am 07:01 Partly Cloudy 34 1.1 33 0.6 97 97 WNW 9 15 30.09 1019 10 16 N/A
7:45 am 07:45 Mostly Cloudy 34 1.1 32 undefined 92 92 NNW 13 20 30.09 1019 10 16 N/A
7:53 am 07:53 Mostly Cloudy 34 1.1 32 undefined 92 92 NNW 10 17 30.06 1018 10 16 N/A
8:00 am 08:00 Partly Cloudy 34 1 32 undefined 93 93 NNW 12 19 30.09 1019 10 16 N/A
8:34 am 08:34 Mostly Cloudy 33 0.6 31 -0.6 92 92 NW 6 9 30.12 1020 10 16 N/A
8:53 am 08:53 Partly Cloudy 36 2.2 33 0.6 89 89 WNW 8 13 30.07 1018 10 16 N/A
9:53 am 09:53 Partly Cloudy 40 4.4 35 1.7 83 83 WNW 12 19 30.07 1018 10 16 N/A
10:15 am 10:15 Mostly Cloudy 42 5.6 35 1.7 76 76 NW 10 17 30.06 1018 10 16 N/A
10:53 am 10:53 Mostly Cloudy 43 6.1 34 1.1 71 71 NNW 21 33 30.08 1019 10 16 N/A
11:53 am 11:53 Cloudy 42 5.6 30 -1.1 62 62 N 18 30 30.10 1019 10 16 N/A
12:53 pm 12:53 Cloudy with Light Snow 38 3.3 34 1.1 86 86 NNW 15 24 30.13 1020 3 4 N/A
1:07 pm 13:07 Cloudy with Light Snow 38 3.3 34 1.1 86 86 NNW 15 24 30.15 1021 4 6 0.01 0.25
1:29 pm 13:29 Cloudy 39 3.9 33 0.6 79 79 NW 9 15 30.15 1021 9 14 0.01 0.25
1:53 pm 13:53 Cloudy 43 6.1 33 0.6 68 68 WNW 15 24 30.11 1020 10 16 0.01 0.25
2:53 pm 14:53 Partly Cloudy 44 6.7 26 -3.3 49 49 NW 16 26 30.10 1019 10 16 N/A
3:53 pm 15:53 Mostly Cloudy 47 8.3 25 -3.9 42 42 NW 20 31 30.10 1019 10 16 N/A
4:53 pm 16:53 Partly Cloudy 46 7.8 23 -5 40 40 NW 16 26 30.11 1020 10 16 N/A
5:53 pm 17:53 Mostly Sunny 44 6.7 25 -3.9 47 47 NNW 17 28 30.13 1020 10 16 N/A
6:53 pm 18:53 Mostly Cloudy 43 6.1 26 -3.3 51 51 NW 12 19 30.16 1021 10 16 N/A
7:53 pm 19:53 Clear 35 1.7 27 -2.8 72 72 N 7 11 30.20 1023 10 16 N/A
8:53 pm 20:53 Clear 32 undefined 27 -2.8 82 82 W 6 9 30.23 1024 10 16 N/A
9:53 pm 21:53 Clear 30 -1.1 26 -3.3 85 85 N N/A 30.24 1024 10 16 N/A
10:53 pm 22:53 Clear 28 -2.2 25 -3.9 88 88 N N/A 30.24 1024 10 16 N/A
11:53 pm 23:53 Clear 27 -2.8 24 -4.4 89 89 ESE 5 7 30.24 1024 10 16 N/A

Powered by AerisWeather